Home   Weather   Stolberg (Rheinland)   Past weeks

Flag for Germany Past Weather in Stolberg (Rheinland), North Rhine-Westphalia, Germany — Yesterday and Last 2 Weeks

Now
50 °F

Cool.


Feels Like: 48 °F
Forecast: 43 / 45 °F
Wind: 6 mph from South

Location: Noervenich

Current Time: Dec 10, 2016 at 12:07:26 pm

Latest Report: Dec 10, 2016 at 11:20 am


Visibility: N/A

Pressure: 30.24 "Hg

Humidity: 67%

Dew Point: 39 °F

Location of Stolberg (Rheinland)Location

Past Weather in Stolberg (Rheinland) — Graph

°F

Stolberg (Rheinland) Temperature Yesterday

Maximum temperature yesterday: 54 °F (at 2:20 pm)
Minimum temperature yesterday: 43 °F (at 12:20 am)
Average temperature yesterday: 49 °F

High & Low Weather Summary for the Past Weeks

 TemperatureHumidityPressure
High54 °F (Dec 9, 2:20 pm)100% (Nov 27, 2:20 am)30.57 "Hg (Nov 27, 2:20 am)
Low19 °F (Nov 30, 2:20 am)45% (Nov 30, 2:20 pm)30.07 "Hg (Nov 26, 1:20 pm)
Average37 °F85%30.32 "Hg
* Reported Nov 25 10:20 am — Dec 10 10:20 am, Stolberg (Rheinland), Weather by CustomWeather, © 2016

Note: Actual official high and low records may vary slightly from our data, if they occured in-between our weather recording intervals... More about our weather records

Advertising

Stolberg (Rheinland) Weather History for the Previous 24 Hours

Scroll right to see more
 ConditionsComfort  
Time TempWeatherWind HumidityBarometerVisibility
10:20 am
Sat, Dec 10
46 °FCool.5 mph76%30.27 "HgN/A
9:20 am39 °FChilly.1 mph93%30.27 "HgN/A
8:20 am43 °FQuite cool.6 mph81%30.27 "HgN/A
7:20 am45 °FQuite cool.8 mph76%30.24 "HgN/A
6:20 am45 °FQuite cool.6 mph81%30.24 "HgN/A
5:20 am45 °FPassing clouds.6 mph81%30.24 "HgN/A
4:20 am45 °FPassing clouds.6 mph81%30.27 "HgN/A
3:20 am43 °FPassing clouds.3 mph87%30.30 "HgN/A
2:20 am41 °FPassing clouds.2 mph87%30.30 "HgN/A
1:20 am43 °FPassing clouds.6 mph81%30.30 "HgN/A
12:20 am45 °FPassing clouds.5 mph81%30.33 "HgN/A
11:20 pm
Fri, Dec 9
46 °FPassing clouds.6 mph76%30.33 "HgN/A
10:20 pm46 °FPassing clouds.5 mph82%30.33 "HgN/A
9:20 pm46 °FPassing clouds.5 mph76%30.33 "HgN/A
8:20 pm48 °FPassing clouds.6 mph76%30.33 "HgN/A
7:20 pm50 °FPassing clouds.1 mph76%30.33 "HgN/A
6:20 pm52 °FPassing clouds.5 mph72%30.36 "HgN/A
5:20 pm52 °FPassing clouds.5 mph82%30.36 "HgN/A
4:20 pm52 °FPartly sunny.2 mph82%30.36 "HgN/A
3:20 pm54 °FPartly sunny.3 mph82%30.36 "HgN/A
2:20 pm54 °FPartly sunny.3 mph82%30.36 "HgN/A
1:20 pm52 °FPartly sunny.2 mph88%30.36 "HgN/A
12:20 pm50 °FBroken clouds.3 mph88%30.39 "HgN/A
Weather by CustomWeather, © 2016

See weather overviewHow to use our weather pages